Showing default

KUIPER-00166, 65779

Orbit data source: Space-Track

KUIPER-00166, 65779 is a payload satellite owned by Kuiper Systems (US) in LEO that was launched on Thu, 25 Sep 2025 UTC via an ATLAS V 551 launch vehicle from the Air Force Eastern Test Range (AFETR). Payload-class satellites include a variety of spacecraft equipped with specific instruments for various scientific and technological missions. These include communications satellites like Starlink; space stations such as the ISS; scientific satellites like the Hubble; Earth observation satellites from companies like Planet Labs, Umbra, and HawkEye 360; GPS; miniature CubeSats for education and research; and military/defense satellites.

Loading next visibility...
Identifier
65779, 2025-217T
Orbit
LEO
Country
Flag of USUS
Related business
Manufacturer
Kuiper Systems
Mission
Operational Commercial Communications
Bus & Motor
KUIPER, Unknown motor
Mass
~490 kg wet, ~490 kg dry
Launch date (UTC)
2025-09-25 (9 months ago)
Launch vehicle
ATLAS V 551
Launch site
Air Force Eastern Test Range (AFETR)
Object type
Payload
Rocket body
Debris
Shape & HBR
Box + 2 Pan, 3.4 m
Radar Cross Section
2.326 m², Large (>1 m²)

Expand to show TLE details & history
Last TLE update: 12 hours ago

TLE from 12 hours ago
0 KUIPER-00166
1 65779U 25217T   26171.35021084  .00002911  00000-0  41063-3 0  9991
2 65779  51.9027 289.1827 0000494 109.5304 250.5712 14.79934733 40350
Epoch: 2026-06-20T08:24Z
TLE epoch observation values (Epoch: 2026-06-20T08:24:18.216Z)
Latitude
-0°
Longitude
-105.4593°
Altitude
630.392 km
Speed
7.544 km/s
True Right ascension
19h 16m 43s
True Declination
0° 00' 00"
Sunlit
Object was in full shadow at epoch
Visualization orbit readout
Latitude
Unknown
Longitude
Unknown
Altitude
Unknown
Speed
Unknown
Apparent Right ascension
Unknown
Apparent Declination
Unknown
Sunlit
N/A
Visualization observer readout
Local Sidereal Time
07:12:49
Azimuth
Unknown
Elevation
Unknown
Doppler factor
Unknown
Orbital elements
Apogee altitude
630.327 km
Perigee altitude
629.635 km
Semi-major axis
7,008.118 km
Eccentricity
0.00005
Inclination
51.9027°
RAAN
289.1827°
Arg. of periapsis
109.5304°
True anomaly
250.56586°
Mean anomaly
250.5712°
Eccentric anomaly
250.56853°
Mean motion
3.69948 °/min
Orbital period
97.31 mins
BSTAR
0.00041063
Loading maneuver chart data...
Computing Atmospheric mass density...
Loading historical data...
Loading historical data...
Loading historical data...
Loading historical data...
Loading historical data...
Loading historical data...
Loading historical data...

Documentation

Showing up to 5 results
|